Drummond Island, MI

9:42 PM EST on December 10, 2016 (GMT -0500)
Drummond Island

Weather History for KDRM - October, 2012

Change the Weather History Date:

Saturday, October 27, 2012

  Actual Average (KCIU) Record (KCIU)
Temperature  
Mean Temperature 38 °F -  
Max Temperature 46 °F 50 °F 66 °F (1989)
Min Temperature 29 °F 30 °F 21 °F (1990)
Degree Days  
Heating Degree Days 28    
Moisture  
Dew Point 30 °F    
Average Humidity 70    
Maximum Humidity 98    
Minimum Humidity 47    
Precipitation  
Precipitation 0.00 in - - ()
Sea Level Pressure  
Sea Level Pressure 30.26 in    
Wind  
Wind Speed 2 mph (NNW)    
Max Wind Speed 7 mph    
Max Gust Speed -    
Visibility 10 miles    
Events      
Averages and records for this station are not official NWS values.
T = Trace of Precipitation, MM = Missing Value Source: NWS Daily Summary

Daily Weather History Graph

Daily Weather History Graph

Search for Another Location

Airport or City:

Trip Planner

Search our weather history database for the weather conditions in past years. The results will help you decide how hot, cold, wet, or windy it might be!

Date:

Astronomy

Oct. 27, 2012 Rise Set
Actual Time 8:09 AM EDT 6:27 PM EDT
Civil Twilight 7:38 AM EDT 6:58 PM EDT
Nautical Twilight 7:03 AM EDT 7:33 PM EDT
Astronomical Twilight 6:28 AM EDT 8:08 PM EDT
Moon 5:16 PM EDT (10/27) 5:58 AM EDT (10/27)
Length of Visible Light 11h 20m
Length of Day
10h 18m
Waxing Gibbous, 96% of the Moon is Illuminated
Oct 27
Waxing Gibbous
Oct 29
Full
Nov 6
Last Quarter
Nov 13
New
Nov 20
First Quarter

Hourly Weather History & Observations

Time (EDT) Temp. Windchill Dew Point Humidity Pressure Visibility Wind Dir Wind Speed Gust Speed Precip Events Conditions
12:35 AM 36.3 °F - 32.0 °F 84% 30.26 in 10.0 mi Calm Calm - N/A   Scattered Clouds
12:56 AM 36.5 °F - 32.0 °F 84% 30.27 in 10.0 mi Calm Calm - N/A   Overcast
1:15 AM 37.4 °F - 33.1 °F 84% 30.27 in 10.0 mi Calm Calm - N/A   Overcast
1:35 AM 41.0 °F - 32.0 °F 70% 30.27 in 10.0 mi Calm Calm - N/A   Overcast
1:56 AM 41.5 °F 39.6 °F 31.3 °F 67% 30.26 in 10.0 mi NNW 3.5 mph - N/A   Overcast
2:15 AM 41.0 °F 39.0 °F 31.8 °F 70% 30.25 in 10.0 mi NNW 3.5 mph - N/A   Overcast
2:36 AM 41.0 °F - 32.0 °F 70% 30.25 in 10.0 mi Calm Calm - N/A   Overcast
2:56 AM 41.0 °F - 31.8 °F 70% 30.25 in 10.0 mi Calm Calm - N/A   Overcast
3:15 AM 40.3 °F - 31.8 °F 72% 30.25 in 10.0 mi Calm Calm - N/A   Overcast
3:36 AM 39.6 °F - 31.8 °F 74% 30.25 in 10.0 mi Calm Calm - N/A   Overcast
3:55 AM 39.4 °F - 31.5 °F 73% 30.24 in 10.0 mi Calm Calm - N/A   Overcast
4:36 AM 33.8 °F - 30.9 °F 89% 30.25 in 10.0 mi Calm Calm - N/A   Clear
4:55 AM 33.3 °F 30.2 °F 31.1 °F 92% 30.25 in 10.0 mi SE 3.5 mph - N/A   Scattered Clouds
5:16 AM 32.0 °F - 30.6 °F 94% 30.26 in 10.0 mi Calm Calm - N/A   Scattered Clouds
5:36 AM 31.6 °F - 30.2 °F 94% 30.26 in 10.0 mi Calm Calm - N/A   Scattered Clouds
5:55 AM 30.2 °F - 29.3 °F 96% 30.27 in 10.0 mi Calm Calm - N/A   Clear
6:16 AM 30.2 °F - 29.7 °F 98% 30.27 in 10.0 mi Calm Calm - N/A   Mostly Cloudy
6:35 AM 30.0 °F - 29.3 °F 97% 30.27 in 10.0 mi Calm Calm - N/A   Mostly Cloudy
6:55 AM 29.8 °F - 29.1 °F 97% 30.27 in 10.0 mi Calm Calm - N/A   Mostly Cloudy
7:16 AM 30.7 °F - 29.1 °F 94% 30.28 in 10.0 mi Calm Calm - N/A   Scattered Clouds
7:56 AM 29.8 °F - 28.4 °F 94% 30.28 in 10.0 mi Calm Calm - N/A   Scattered Clouds
8:16 AM 29.3 °F - 28.4 °F 96% 30.28 in 10.0 mi Calm Calm - N/A   Clear
8:35 AM 29.3 °F - 28.4 °F 96% 30.28 in 10.0 mi Calm Calm - N/A   Clear
8:56 AM 29.3 °F - 28.6 °F 97% 30.28 in 10.0 mi Calm Calm - N/A   Clear
9:16 AM 31.8 °F - 30.9 °F 96% 30.28 in 10.0 mi Calm Calm - N/A   Clear
9:35 AM 36.7 °F - 33.3 °F 87% 30.29 in 10.0 mi Calm Calm - N/A   Clear
10:16 AM 42.8 °F 41.1 °F 30.7 °F 62% 30.29 in 10.0 mi North 3.5 mph - N/A   Mostly Cloudy
10:35 AM 42.4 °F 39.6 °F 29.8 °F 61% 30.29 in 10.0 mi NNW 4.6 mph - N/A   Overcast
10:56 AM 42.3 °F - 30.0 °F 62% 30.28 in 10.0 mi Calm Calm - N/A   Overcast
11:35 AM 43.0 °F - 30.7 °F 62% 30.28 in 10.0 mi Calm Calm - N/A   Overcast
11:56 AM 43.5 °F - 29.1 °F 57% 30.28 in 10.0 mi Calm Calm - N/A   Overcast
12:15 PM 43.2 °F - 26.8 °F 52% 30.28 in 10.0 mi Calm Calm - N/A   Overcast
12:36 PM 43.9 °F 42.3 °F 28.9 °F 56% 30.27 in 10.0 mi North 3.5 mph - N/A   Overcast
12:56 PM 43.7 °F 42.1 °F 28.2 °F 54% 30.26 in 10.0 mi NW 3.5 mph - N/A   Overcast
1:15 PM 43.9 °F 42.3 °F 27.0 °F 51% 30.25 in 10.0 mi NW 3.5 mph - N/A   Overcast
1:36 PM 46.0 °F 43.9 °F 28.6 °F 51% 30.25 in 10.0 mi West 4.6 mph - N/A   Mostly Cloudy
1:55 PM 45.5 °F 41.8 °F 28.2 °F 51% 30.24 in 10.0 mi NNW 6.9 mph - N/A   Scattered Clouds
2:16 PM 43.7 °F 42.1 °F 27.3 °F 53% 30.24 in 10.0 mi NNW 3.5 mph - N/A   Scattered Clouds
2:36 PM 44.2 °F - 27.1 °F 51% 30.24 in 10.0 mi Calm Calm - N/A   Clear
2:55 PM 46.2 °F 45.0 °F 27.9 °F 49% 30.23 in 10.0 mi West 3.5 mph - N/A   Clear
3:16 PM 43.9 °F 41.3 °F 27.3 °F 52% 30.23 in 10.0 mi North 4.6 mph - N/A   Clear
3:36 PM 43.5 °F 41.9 °F 27.1 °F 53% 30.23 in 10.0 mi NNW 3.5 mph - N/A   Mostly Cloudy
3:55 PM 44.1 °F 42.5 °F 27.9 °F 53% 30.23 in 10.0 mi North 3.5 mph - N/A   Overcast
4:16 PM 43.0 °F 41.3 °F 27.1 °F 54% 30.23 in 10.0 mi North 3.5 mph - N/A   Mostly Cloudy
4:36 PM 44.6 °F 43.1 °F 26.8 °F 50% 30.23 in 10.0 mi NW 3.5 mph - N/A   Clear
4:55 PM 45.9 °F 43.6 °F 26.8 °F 47% 30.23 in 10.0 mi WNW 4.6 mph - N/A   Scattered Clouds
5:16 PM 45.3 °F 44.0 °F 27.0 °F 49% 30.23 in 10.0 mi NW 3.5 mph - N/A   Scattered Clouds
5:35 PM 45.0 °F - 26.1 °F 48% 30.23 in 10.0 mi Calm Calm - N/A   Mostly Cloudy
5:55 PM 44.8 °F 42.4 °F 27.3 °F 50% 30.24 in 10.0 mi NW 4.6 mph - N/A   Overcast
6:16 PM 43.7 °F 41.1 °F 28.0 °F 54% 30.24 in 10.0 mi NW 4.6 mph - N/A   Overcast
6:35 PM 43.0 °F 39.5 °F 28.2 °F 56% 30.25 in 10.0 mi NW 5.8 mph - N/A   Mostly Cloudy
6:56 PM 42.3 °F 40.5 °F 30.0 °F 62% 30.25 in 10.0 mi NW 3.5 mph - N/A   Overcast
7:16 PM 42.1 °F 40.2 °F 29.3 °F 61% 30.25 in 10.0 mi NNW 3.5 mph - N/A   Overcast
7:35 PM 41.9 °F 39.0 °F 28.6 °F 59% 30.26 in 10.0 mi NNW 4.6 mph - N/A   Overcast
7:56 PM 41.9 °F 39.0 °F 27.9 °F 58% 30.26 in 10.0 mi NNW 4.6 mph - N/A   Overcast
8:16 PM 41.9 °F 39.0 °F 27.3 °F 56% 30.27 in 10.0 mi NW 4.6 mph - N/A   Overcast
8:35 PM 41.4 °F 36.8 °F 28.0 °F 59% 30.26 in 10.0 mi NNW 6.9 mph - N/A   Overcast
8:56 PM 41.0 °F 38.0 °F 30.4 °F 66% 30.26 in 10.0 mi North 4.6 mph - N/A   Mostly Cloudy
9:16 PM 40.1 °F 36.1 °F 32.0 °F 73% 30.26 in 10.0 mi NNW 5.8 mph - N/A   Mostly Cloudy
9:35 PM 39.4 °F 36.1 °F 32.0 °F 75% 30.26 in 10.0 mi NW 4.6 mph - N/A   Mostly Cloudy
9:56 PM 38.5 °F 36.1 °F 32.2 °F 78% 30.26 in 10.0 mi NNW 3.5 mph - N/A   Scattered Clouds
10:15 PM 38.5 °F 36.1 °F 32.5 °F 79% 30.27 in 10.0 mi NW 3.5 mph - N/A   Clear
10:35 PM 37.6 °F 35.1 °F 32.2 °F 81% 30.27 in 10.0 mi NNW 3.5 mph - N/A   Clear
10:56 PM 37.8 °F 35.3 °F 32.0 °F 80% 30.27 in 10.0 mi NW 3.5 mph - N/A   Clear
11:15 PM 37.6 °F 34.0 °F 32.0 °F 80% 30.28 in 10.0 mi NW 4.6 mph - N/A   Clear
11:36 PM 37.2 °F 33.6 °F 32.0 °F 81% 30.28 in 10.0 mi NNW 4.6 mph - N/A   Clear
11:56 PM 37.4 °F 33.8 °F 32.0 °F 81% 30.27 in 10.0 mi NNW 4.6 mph - N/A   Clear